Welcome to the New NWS' Forecast!
Most changes are behind the scenes, but click here for differences you might notice.

Regional Weather Roundup (RWR)

Issued by Baltimore/Washington (LWX)

                            
000
ASUS41 KLWX 200011
RWRLWX

REGIONAL WEATHER ROUNDUP
NATIONAL WEATHER SERVICE BALTIMORE MD/WASHINGTON DC
700 PM EST MON NOV 19 2018

Note: "FAIR" indicates few or no clouds below 12,000 feet
with no significant weather and/or obstructions to visibility.
 TC=TEMPERATURE CELSIUS

 * =Non NWS site. Station does not report precipitation (e.g. rain,
    snow, etc.), thunder, or fog.

DCZ001-MDZ009-015-VAZ040>042-051-053>054-200100-
WASHINGTON METRO
  
CITY           SKY/WX    TMP DP  RH WIND       PRES   REMARKS
WASHINGTON NAT MOCLDY    52  44  74 S6        29.96F                  
DULLES         MOCLDY    52  45  77 S3        29.95S                  
ANDREWS AFB    FAIR      49  44  81 SE7       29.94F                  
FT BELVOIR     CLOUDY    48  47  94 CALM      29.95F                  
QUANTICO       FAIR      51  47  86 S7        29.95F                  
LEESBURG*      MOCLDY    52  45  76 S6        29.95S                  
MANASSAS*      FAIR      51  45  79 SW3       29.95F                  
GAITHERSBURG*  FAIR      49  42  77 E3        29.96R                  

$$

MDZ006>007-011-014-200100-
BALTIMORE METRO
  
CITY           SKY/WX    TMP DP  RH WIND       PRES   REMARKS
BWI AIRPORT    CLOUDY    49  44  83 CALM      29.95F                  
MD SCIENCE CTR   N/A     50  43  77 MISG      29.96F                  
MARTIN STATE   CLOUDY    46  45  93 CALM      29.98F                  
ANNAPOLIS      FAIR      51  47  86 SE8       29.96F                  

$$

MDZ012-015-019>023-200100-
MARYLAND EASTERN SHORE
  
CITY           SKY/WX    TMP DP  RH WIND       PRES   REMARKS
OCEAN CITY     FAIR      50  48  93 SW3       30.00F                  
SALISBURY      FAIR      48  46  93 S3        29.99S                  
CAMBRIDGE*     CLEAR     50  48  93 VRB5      29.99S                  
EASTON*        MOCLDY    50  46  87 S5        30.01F                  

$$

MDZ017>025-200100-
SOUTHERN MARYLAND
  
CITY           SKY/WX    TMP DP  RH WIND       PRES   REMARKS
PATUXENT RIVER MOCLDY    51  48  89 SW8       29.98S                  
ST INIGOES     FAIR      52  48  86 S6        29.99R                  
LEONARDTOWN*   FAIR      52  46  82 S3        29.99F                  

$$

MDZ003>005-200100-
NORTH CENTRAL MARYLAND
  
CITY           SKY/WX    TMP DP  RH WIND       PRES   REMARKS
FREDERICK*     CLEAR     46  45  93 CALM      29.97S                  
HAGERSTOWN APT CLOUDY    46  40  79 NW8       29.94R HAZE             
WESTMINSTER*   FAIR      48  43  81 SE5       29.94F                  

$$

MDZ501>502-200100-
WESTERN MARYLAND
  
CITY           SKY/WX    TMP DP  RH WIND       PRES   REMARKS
OAKLAND*       MOCLDY    41  41 100 SW3       29.93R                  
CUMBERLAND*    NOT AVBL                                               

$$

VAZ025>031-200100-
SHENANDOAH VALLEY
  
CITY           SKY/WX    TMP DP  RH WIND       PRES   REMARKS
WINCHESTER*    CLOUDY    45  43  93 CALM      29.93F                  
FRONT ROYAL*   CLOUDY    50  41  71 MISG      29.92F                  
LURAY*         MOCLDY    52  41  66 SW5       29.93F                  
NEW MARKET*    CLOUDY    53  41  62 W6        29.93S                  
STAUNTON*      CLOUDY    50  42  73 CALM      29.97S                  
WAYNESBORO*    MOCLDY    51  40  66 CALM      29.96S                  

$$

WVZ021-048>050-054>055-200100-
EASTERN WEST VIRGINIA PANHANDLE
  
CITY           SKY/WX    TMP DP  RH WIND       PRES   REMARKS
MARTINSBURG    MOCLDY    45  41  86 CALM      29.93S                  
PETERSBURG*    CLOUDY    47  43  86 CALM      29.94R                  

$$

VAZ036>039-050-200100-
CENTRAL FOOTHILLS
  
CITY           SKY/WX    TMP DP  RH WIND       PRES   REMARKS
CHARLOTTESVILL FAIR      55  44  66 S9        29.95S                  
CULPEPER*      FAIR      51  44  75 CALM      29.96S                  
ORANGE*        FAIR      52  45  76 SW5       29.95F                  
GORDONSVILLE*  FAIR      49  47  94 CALM      29.95S                  
WARRENTON*     FAIR      55  42  62 CALM      29.94F                  

$$

VAZ055>057-200100-
NORTH AND CENTRAL PIEDMONT
  
CITY           SKY/WX    TMP DP  RH WIND       PRES   REMARKS
FREDERICKSBRG* FAIR      53  47  78 S8        29.95F                  
STAFFORD*      FAIR      53  47  81 SE5       29.98F                  

$$

NCZ024-NYZ072-PAZ021-071-VAZ022-071-200100-
OTHER REGIONAL OBSERVATIONS
  
CITY           SKY/WX    TMP DP  RH WIND       PRES   REMARKS
NEW YORK CITY  FAIR      48  38  68 MISG      30.01F                  
PHILADELPHIA   CLOUDY    47  42  83 E5        29.97F                  
PITTSBURGH     DRZL/FOG  38  38 100 CALM      29.94S VSB 1/2          
ROANOKE        MOCLDY    57  38  48 CALM      29.99S                  
RICHMOND       CLOUDY    51  46  83 S6        29.99F                  
RALEIGH        FAIR      54  49  83 S3        30.03R                  

$$

ANZ530>537-200100-
MARINE OBSERVATIONS
  
STATION/POSITION TIME  TEMP    WIND        PRES
                       AIR SEA DIR/SP/G
                 (UTC) (F)     (DEG/KT/KT) (MB)
THOMAS PT LIGHT  0000   51 50  140/  9/ 10 1015.4F
BALT KEY BRIDGE  2348   48     120/  8/  9 1014.4F
COVE POINT       2348   52     200/  6/  7 1015.9R
LEWISETTA        2342   53 50  230/  7/  8 1015.5R
SOLOMONS ISLAND  2348   53 52  200/  6/  7 1015.1S
PINEY POINT      2342          190/  4/  4   N/A

$$